#timestamp,LO_Frequency,Hit,StdDev 
1552946415.6,286047002.4,N
1552946435.4,286046999.9,N
1552946455.2,286047000.2,N
1552946475.1,286047000.8,N
1552946476.0,286047000.8,N
1552946495.8,286047000.4,N
1552946515.6,286046998.4,N
1552946535.5,286047001.2,N
1552946555.3,286046999.4,N
1552946575.2,286046998.5,N
1552946595.9,286046999.7,N
1552946615.7,286047001.1,N
1552946635.6,286047002.2,N
1552946655.4,286047000.4,N
1552946675.2,286047002.7,N
1552946695.1,286047001.0,N
1552946696.0,286047001.0,N
1552946715.8,286047000.7,N
1552946735.6,286047000.6,N
1552946755.5,286047002.4,N
1552946775.3,286047000.8,N
1552946795.2,286047000.3,N
1552946815.9,286047001.1,N
1552946835.7,286046999.3,N
1552946855.6,286046999.4,N
1552946875.4,286046998.7,N
1552946895.2,286046999.2,N
1552946915.1,286046997.4,N
1552946916.0,286046997.4,N
1552946935.8,286046998.9,N
1552946955.7,286046999.1,N
1552946975.5,286046999.8,N
1552946995.3,286046999.8,N
1552947015.2,286047000.8,N
1552947035.0,286047000.8,N
1552947035.9,286047000.8,N
1552947055.7,286046999.0,N
1552947075.6,286047000.4,N
1552947095.4,286046998.1,N
1552947115.3,286046998.3,N
1552947135.1,286047000.6,N
1552947136.0,286047000.6,N
1552947155.8,286047001.0,N
1552947175.7,286046998.5,N
1552947195.5,286046999.4,N
1552947215.3,286046996.6,N
1552947235.2,286046996.6,N
1552947255.0,286046998.3,N
1552947255.9,286046998.3,N
1552947275.8,286046999.3,N
1552947295.6,286046998.7,N
1552947315.4,286047000.9,N
1552947335.3,286046998.1,N
1552947355.7,286046999.3,N
1552947375.5,286046998.8,N
1552947395.4,286046999.5,N
1552947415.2,286046999.4,N
1552947435.0,286046998.6,N
1552947435.9,286046998.6,N
1552947455.8,286047000.5,N
1552947475.6,286046998.2,N
1552947495.5,286047000.9,N
1552947515.3,286047000.8,N
1552947535.1,286046999.2,N
1552947555.9,286046997.0,N
1552947575.7,286046999.2,N
1552947595.5,286046996.7,N
1552947615.4,286046997.1,N
1552947635.2,286046999.5,N
1552947655.1,286046999.3,N
1552947656.0,286046999.3,N
1552947675.8,286046999.4,N
1552947695.6,286046999.2,N
1552947715.5,286046999.4,N
1552947735.3,286046998.6,N
1552947755.1,286046996.5,Y
1552947775.9,286047001.1,P
1552947795.7,286046998.4,N
1552947815.6,286046998.1,N
1552947835.4,286047000.3,N
1552947855.2,286047000.9,N
1552947875.1,286046998.1,N
1552947876.0,286046998.1,N
1552947895.8,286047001.2,N
1552947915.6,286047000.4,N
1552947935.5,286047000.8,N
1552947955.3,286047000.6,N
1552947975.2,286047000.7,N
1552947995.9,286046998.3,N
1552948015.7,286046999.3,N
1552948035.6,286047000.5,N
1552948055.4,286047002.8,N
1552948075.2,286047002.2,N
1552948095.1,286047002.5,N
1552948096.0,286047002.5,N
1552948115.8,286047002.8,N
1552948135.7,286047002.7,N
1552948155.5,286047002.5,N
1552948175.3,286047002.3,N
1552948195.2,286047002.2,N
1552948215.0,286046999.7,N
1552948215.9,286046999.7,N
1552948235.7,286046999.9,N
1552948255.6,286047000.6,N
1552948275.4,286046998.5,N
1552948295.3,286046998.1,N
1552948315.1,286046998.1,N
1552948335.8,286046996.6,N
1552948355.7,286046999.3,N
1552948375.5,286046997.0,N
1552948395.4,286046997.0,N
1552948415.2,286046998.2,N
1552948435.0,286046997.1,N
1552948435.9,286046997.1,N
1552948455.8,286046997.3,N
1552948475.6,286046999.0,N
1552948495.4,286046998.2,N
1552948515.3,286046999.1,N
1552948535.1,286046999.6,N
1552948555.9,286046998.5,N
1552948575.7,286047001.2,N
1552948595.5,286047000.7,N
1552948615.4,286047001.2,N
1552948635.2,286047000.4,N
1552948655.0,286046999.7,N
1552948655.9,286046999.7,N
1552948675.8,286047002.1,N
1552948695.6,286047000.3,N
1552948715.5,286046999.8,N
1552948735.3,286047000.2,N
1552948755.1,286047002.5,N
1552948775.9,286047002.7,N
1552948795.7,286047000.4,N
1552948815.5,286047001.1,N
1552948835.4,286046996.5,N
1552948855.2,286046998.3,N
1552948875.0,286046998.3,N
1552948895.1,286047000.7,N
1552948896.0,286047000.7,N
1552948915.8,286047002.4,N
1552948935.7,286047001.5,N
1552948955.5,286047004.0,N
1552948975.3,286047001.6,N
1552948995.2,286047003.6,N
1552949015.0,286047001.7,N
1552949015.9,286047001.7,N
1552949035.8,286047002.5,N
1552949055.6,286047001.5,N
1552949075.4,286047005.9,Y
1552949095.3,286047003.8,P
1552949115.1,286047003.6,N
1552949135.9,286047005.7,P
1552949155.7,286047005.8,Y
1552949175.5,286047001.1,P
1552949195.4,286046999.4,N
1552949215.2,286046999.6,N
1552949235.0,286046999.1,N
1552949235.9,286046999.1,N
1552949255.8,286046999.3,N
1552949275.6,286046996.5,N
1552949295.5,286046996.9,N
1552949345.3,286046998.8,E
1552949355.2,286046998.1,N
1552949375.1,286046999.8,P
1552949376.0,286046999.8,N
1552949395.8,286047000.5,N
1552949415.7,286047000.1,N
1552949435.5,286047002.8,Y
1552949455.3,286047000.2,P
1552949475.2,286047000.0,N
1552949495.0,286047001.4,P
1552949495.9,286047001.4,N
1552949515.8,286047002.7,Y
1552949535.6,286047000.0,P
1552949555.4,286046999.8,N
1552949575.3,286046999.7,N
1552949595.1,286047000.6,N
1552949615.8,286047002.4,Y
1552949635.7,286046998.1,P
1552949655.5,286046998.6,N
1552949675.4,286046999.1,N
1552949695.2,286046997.2,Y
1552949715.0,286047000.7,P
1552949715.9,286047000.7,N
1552949735.8,286046998.4,N
1552949755.6,286047001.0,N
1552949775.4,286046998.1,N
1552949795.3,286046998.6,N
1552949815.1,286047000.8,N
1552949835.9,286047002.8,N
1552949855.7,286047002.0,N
1552949875.5,286047001.9,N
1552949895.4,286047003.6,N
1552949915.2,286047001.7,N
1552949935.0,286047001.9,N
1552949935.9,286047001.9,N
1552949955.8,286047002.4,N
1552949975.6,286047002.3,N
1552949995.5,286047002.8,N
